Погода в Мариуполе

Погода в Мариуполе : погода сейчас, прогноз погоды и архив. Всё, что Вы хотите узнать о погоде в Мариуполе!

Поиск расширенной информации на нашем сайте:

Другие новости

Новости СМИ2

Главная страница сайта

Новости сайта

02.10.2013

Напоминаем, что на нашем новом сайте вы можете получить высокодетализированные прогнозы погоды по пунктам России, СНГ и мира (включающие важные для авиации метеовеличины, такие как направление и скорость ветра, видимость, явления погоды, количество и форма облачности, нижняя и верхняя граница облачности), а также ознакомиться с разнообразными материалами по авиационной метеорологии и подборкой полезных ссылок на эту тему.

Сайт Метеоцентр.Азия посвящён разработке технологий оптимизации авиаметеорологического обслуживания, включая проектирование и перспективное создание нескольких автоматизированных авиаметеорологических систем:
- система выпуска высокодетальных прогностических карт явлений погоды для нижнего воздушного пространства по России и ближнему зарубежью;
- система верификации прогнозов TAF (выпускаемых синоптиками официальных АМСГ РФ и ближнего зарубежья) и AUTOTAF (выпускаемых сайтом Метеоцентр.Азия) - выявление ошибок, онлайн-сопоставление с фактической погодой METAR, автоматическое внесение коррективов в прогнозы при резком отклонении фактической погоды от прогноза, подсчёт оправдываемости прогнозов по элементам и в целом;
- система обработки, анализа и отображения авиаметеорологической информации для применения провайдерами метеорологической информации.

Рекомендуем: Обучение наращиванию ногтей в ONS - обучение наращиванию ногтей в москве.

Погода в Мариуполе - сегодня

Время (UTC), дата Ветер
(°,м/с) 
Видим.   Явления Облачность Т
(°С)
Тd
(°С)
f(%) Тe
(°С)
Pmin
(гПа)
dP
(гПа)
Po
(мм)
O2
(г/м3)
Тmin Tmax R s Состояние
почвы
03 27.01.15 090 (В) 4000 м  дымка  10/10 360 м 
[St]
-2.6 -2.9 98 -7  1022  -0.4  760  309           
06 27.01.15 090 (В) 0200 м  туман [диам. изморози 1 мм]  ?/?  
-2.6 -2.6 100 -7  1022.2  0.2  760  309  -3.2         
09 27.01.15 090 (В) 0200 м  туман  ?/?  
-2.2 -2.2 100 -7  1022  -0.2  760  309           
12 27.01.15 090 (В) 0200 м  переохл. туман  ?/?  
-1.8 -1.8 100 -6  1020.6  -1.4  759  308         
15 27.01.15 090 (В) 0200 м  переохл. туман  ?/?  
-1.3 -1.3 100 -5  1020.7  0.1  759  307           
18 27.01.15 090 (В) 0200 м  переохл. туман  ?/?  
-1 -1 100 -5  1020.5  -0.1  759  307    -0.9  0.0     
21 27.01.15 070 (В) 0200 м  переохл. туман  ?/?  
-1.1 -1.1 100 -5  1019.3  -1.2  758  307           
00 28.01.15 090 (В) 0500 м  переохл. туман  ?/?  
-1 -1 100 -4  1017.5  -1.8  757  306           
03 28.01.15 050 (СВ) 4000 м  дымка{туман}  10/10 300 м 
[St]
-1 -1.2 98 -4  1015.9  -1.6  755  306          полностью
покрыта
пылью 
06 28.01.15 060 (СВ) 4000 м  дымка{туман}  10/10 330 м 
[St]
-0.8 -1.2 97 -3  1015.4  -0.5  755  305  -1.4         
09 28.01.15 070 (В) 4000 м  дымка  10/10 300 м 
[St]
+0.4 -0.2 96 -3  1014.5  -0.8  754  304          полностью
покрыта
пылью 
12 28.01.15 100 (В) 4000 м  дымка  10/10 330 м 
[St]
+0.5 +0.2 98 -3  1012.5  -2  753  303          полностью
покрыта
пылью 
15 28.01.15 070 (В) 0200 м  туман  ?/?  
+0.2 +0.2 100 -4  1012.6  0.1  753  303           
18 28.01.15 070 (В) 0200 м  слаб. морось{туман}  ?/?  
+0.8 +0.8 100 -3  1012.4  -0.2  753  302    +1  0.7    полностью
покрыта
пылью 
21 28.01.15 080 (В) 0200 м  туман{морось}  ?/?  
+0.6 +0.6 100 -3  1011.8  -0.6  752  302           
00 29.01.15 090 (В) 1000 м  дымка{морось, туман}  10/10 400 м 
[St]
+0.2 -0.1 98 -4  1011.2  -0.6  752  303      0.0     
03 29.01.15 070 (В) 4000 м  дымка  10/10 450 м 
[St]
+0 -0.3 98 -4  1010.9  -0.3  752  303          полностью
покрыта
пылью 
06 29.01.15 080 (В) 10 км    10/10 300 м 
[St]
-0.2 -0.8 96 -4  1011.2  0.3  752  303  -0.3    0.0     
09 29.01.15 090 (В) 10 км  {ливн. осадки}  10/10 300 м 
[St]
-0.4 -1.3 94 -5  1010.9  -0.3  752  303          полностью
покрыта
пылью 
12 29.01.15 070 (В) 4000 м  слаб. переохл. дождь (гололёд){ливн. осадки} [диам. гололёда 2 мм]  10/9 300 м средняя 
[Frnb|As op]
-0.2 -0.8 96 -3  1009.7  -1.2  751  303      0.7     
15 29.01.15 070 (В) 4000 м  переохл. морось (гололёд){дождь}  10/10 300 м 
[St]
-0.2 -0.5 98 -3  1009.9  0.2  751  303           
18 29.01.15 070 (В) 4000 м  дымка{морось}  10/10 330 м 
[St]
+0 -0.5 96 -2  1009.7  -0.2  751  303    +0     
21 29.01.15 320 (СЗ) 0500 м  слаб. морось{туман}  ?/?  
+0.4 +0.4 100 1010.5  0.8  751  302           
00 30.01.15 180 (Ю) 0200 м  туман{морось}  ?/?  
+0.3 +0.3 100 1011  0.5  752  302      0.0     
03 30.01.15 040 (СВ) 1000 м  дымка{туман}  10/10 300 м 
[St]
+0.5 +0.2 98 1010.6  -0.4  751  302           
Время (UTC), дата Ветер
(°,м/с) 
Видим.   Явления Облачность Т
(°С)
Тd
(°С)
f(%) Тe
(°С)
Pmin
(гПа)
dP
(гПа)
Po
(мм)
O2
(г/м3)
Тmin Tmax R s Состояние
почвы

Для получения пояснительной информации подведите курсор к названию столбца.

ПОГОДА в Мариуполе - архив

Всё, что Вы хотите узнать о погоде в Мариуполе - удобно и подробно!

Выберите нужную дату (начиная с 1 января 2013* года) и нажмите кнопку "Найти".
Будут отображены архивные сводки погоды по пункту Мариуполь, начиная с указанной даты.


Отображать данные в формате CSV (для использования в таблицах Excel)


Внимание! Наш архив погоды предназначен исключительно для личного некоммерческого использования в познавательных целях. Если Вам необходимы официальные справки о состоянии погоды (для производственных, юридических, коммерческих и т.п. целей), обращайтесь в органы Росгидромета.

*Примечание: данная дата относится к архиву по метеостанциям СССР (Россия, СНГ, Балтия).
Архив по метеостанциям Зарубежной Европы и Азии (кроме Китая) хранится 10 дней, по другим регионам земного шара (Китай, Африка, Америка, Австралия, Океания) - 1 день.

Мариуполь - район местоположения метеостанции


Название, широта, долгота, высота метеостанции:
Мариуполь (город) 47°ш. 37.5°д. 70 м над ур. моря [Украина]

Дополнительная информация

В oтличие oт бoльшинства пoгoдных сайтoв мы публикуем пoдрoбную метеoинфoрмацию в детальнoм прoфессиoнальнoм фoрмате.

Характеристики температуры и влажнoсти вoздуха измеряются на высoте 2 м в тени вдали oт зданий и деревьев.
Скoрoсть ветра измеряется на высoте 10 м (на урoвне рoста челoвека скoрoсть ветра ниже в 1.5-2 раза). Если метеoстанция нахoдится в гoрoде или в лесу, тo скoрoсть ветра занижена на 2-4 м/с пo сравнению с oткрытым местoм. Скoрoсть ветра над акватoриями крупных рек и oзёр, а также на вершинах хoлмoв на 2-5 м/с выше, чем в oбычных услoвиях.
Атмoсфернoе давление в разных тoчках местнoсти мoжет значительнo oтличаться oт давления на метеoстанции, в зависимoсти oт услoвий рельефа (при пoдъёме на 10 м давление пoнижается примернo на 1 мм рт.ст.).